M0SDM Weather Reports


time (UTC)temp
C
wind
direction
speed
KPH
gust
KPH
rain 1hr
cm
rain 24hr
cm
rain mn
cm
humidity
%
barometer
mb
20260510211021 6 0 0.0 0.0 0.00 0.00 0.00 72 1013.6
20260510205521 6 0 0.0 0.0 0.00 0.00 0.00 71 1013.7
20260510204021 7 0 0.0 0.0 0.00 0.00 0.00 69 1013.6
20260510202521 7 0 0.0 0.0 0.00 0.00 0.00 66 1013.6
20260510201021 8 135 0.0 3.2 0.00 0.00 0.00 63 1013.6
20260510195521 8 135 0.0 3.2 0.00 0.00 0.00 62 1014.0
20260510194021 8 107 0.0 6.4 0.00 0.00 0.00 58 1013.7
20260510192521 9 155 0.0 3.2 0.00 0.00 0.00 57 1013.9
20260510191021 10 79 1.6 6.4 0.00 0.00 0.00 55 1014.0
20260510185521 10 147 0.0 3.2 0.00 0.00 0.00 54 1014.0
20260510184021 10 142 0.0 6.4 0.00 0.00 0.00 51 1013.7
20260510182521 11 155 1.6 3.2 0.00 0.00 0.00 51 1013.4
20260510181021 11 60 0.0 3.2 0.00 0.00 0.00 50 1013.3
20260510175521 11 83 0.0 9.7 0.00 0.00 0.00 49 1013.1
20260510174021 12 100 0.0 6.4 0.00 0.00 0.00 45 1012.9
20260510172521 12 120 1.6 6.4 0.00 0.00 0.00 46 1012.8
20260510171021 11 58 0.0 3.2 0.00 0.00 0.00 48 1012.8
20260510165521 12 28 1.6 9.7 0.00 0.00 0.00 47 1012.7
20260510164021 12 104 3.2 6.4 0.00 0.00 0.00 45 1012.9
20260510162521 12 132 0.0 6.4 0.00 0.00 0.00 46 1013.0
20260510161021 13 52 1.6 6.4 0.00 0.00 0.00 48 1012.9
20260510155521 13 324 3.2 6.4 0.00 0.00 0.00 46 1012.6
20260510154021 14 95 1.6 6.4 0.00 0.00 0.00 45 1013.1
20260510152521 14 347 1.6 6.4 0.00 0.00 0.00 44 1013.4
20260510151021 14 77 3.2 9.7 0.00 0.00 0.00 44 1013.6
20260510145521 14 95 3.2 6.4 0.00 0.00 0.00 43 1013.4
20260510144021 13 222 1.6 9.7 0.00 0.00 0.00 46 1014.3
20260510142521 13 22 1.6 14.5 0.00 0.00 0.00 45 1014.2
20260510141021 14 136 3.2 6.4 0.00 0.00 0.00 44 1014.7
20260510135521 13 202 1.6 9.7 0.00 0.00 0.00 44 1014.8
20260510134021 15 29 1.6 9.7 0.00 0.00 0.00 43 1015.0
20260510132521 13 338 3.2 9.7 0.00 0.00 0.00 44 1015.5
20260510131021 13 84 1.6 6.4 0.00 0.00 0.00 47 1015.7
20260510125521 15 82 1.6 9.7 0.00 0.00 0.00 47 1015.7
20260510124021 13 58 3.2 9.7 0.00 0.00 0.00 46 1016.5
20260510122521 15 22 1.6 11.3 0.00 0.00 0.00 45 1016.6
20260510121021 13 85 3.2 11.3 0.00 0.00 0.00 49 1016.9
20260510115521 13 52 3.2 12.9 0.00 0.00 0.00 51 1017.3
20260510114021 12 267 3.2 6.4 0.00 0.00 0.00 54 1017.4
20260510112521 12 68 3.2 6.4 0.00 0.00 0.00 53 1017.6
20260510111021 12 57 1.6 11.3 0.00 0.00 0.00 57 1017.9
20260510105521 11 360 3.2 9.7 0.00 0.00 0.00 59 1017.8
20260510104021 11 111 3.2 11.3 0.00 0.00 0.00 59 1018.0
20260510102521 11 325 1.6 9.7 0.00 0.00 0.00 62 1018.1
20260510101021 12 98 3.2 9.7 0.00 0.00 0.00 58 1018.6
20260510095521 11 175 0.0 9.7 0.00 0.00 0.00 59 1018.7
20260510094021 12 97 3.2 11.3 0.00 0.00 0.00 59 1019.0
20260510092521 11 7 3.2 9.7 0.00 0.00 0.00 64 1018.9
20260510091021 10 345 3.2 6.4 0.00 0.00 0.00 66 1019.1
20260510085521 10 98 3.2 9.7 0.00 0.00 0.00 68 1019.3
20260510084021 10 330 3.2 14.5 0.00 0.00 0.00 74 1019.6
20260510082521 10 253 1.6 6.4 0.00 0.00 0.00 75 1019.4
20260510081021 10 84 0.0 9.7 0.00 0.00 0.00 75 1019.4
20260510075521 9 306 1.6 6.4 0.00 0.00 0.00 76 1019.7
20260510074021 9 334 1.6 6.4 0.00 0.00 0.00 76 1019.6
20260510072521 9 275 1.6 6.4 0.00 0.00 0.00 77 1019.7
20260510071021 9 341 0.0 6.4 0.00 0.00 0.00 77 1019.5
20260510065521 8 305 1.6 9.7 0.00 0.00 0.00 79 1019.8
20260510064021 8 299 1.6 6.4 0.00 0.00 0.00 78 1019.5
20260510062521 8 330 1.6 6.4 0.00 0.00 0.00 79 1019.5
20260510061021 7 313 1.6 6.4 0.00 0.00 0.00 82 1019.7
20260510055521 7 338 1.6 6.4 0.00 0.00 0.00 83 1019.8
20260510054021 7 314 0.0 9.7 0.00 0.00 0.00 84 1019.5
20260510052521 7 271 1.6 6.4 0.00 0.00 0.00 84 1019.7
20260510051021 7 300 1.6 11.3 0.00 0.00 0.00 84 1019.9
20260510045521 7 303 1.6 11.3 0.00 0.00 0.00 83 1019.8
20260510044021 8 338 1.6 6.4 0.00 0.00 0.00 84 1019.5
20260510042521 8 274 3.2 9.7 0.00 0.00 0.00 84 1019.6
20260510041021 8 282 3.2 6.4 0.00 0.00 0.00 86 1019.7
20260510035521 8 313 1.6 11.3 0.00 0.00 0.00 86 1019.9
20260510034021 8 313 1.6 6.4 0.00 0.00 0.00 87 1020.1
20260510032521 8 278 1.6 6.4 0.00 0.00 0.00 87 1020.1
20260510031021 8 346 3.2 11.3 0.00 0.00 0.00 87 1020.1
20260510025521 8 286 1.6 6.4 0.00 0.00 0.00 87 1020.2
20260510024021 8 346 0.0 6.4 0.00 0.00 0.00 88 1020.1
20260510022521 8 298 1.6 9.7 0.00 0.00 0.00 88 1020.1
20260510021021 8 288 0.0 6.4 0.00 0.00 0.00 88 1019.7
20260510015521 8 310 1.6 6.4 0.00 0.00 0.00 88 1019.7
20260510014021 8 212 1.6 6.4 0.00 0.00 0.00 88 1019.4
20260510012521 9 333 3.2 6.4 0.00 0.00 0.00 89 1019.3
20260510011021 9 350 1.6 6.4 0.00 0.00 0.00 89 1019.8
20260510005521 9 304 3.2 6.4 0.00 0.00 0.00 89 1019.5
20260510004021 9 286 1.6 6.4 0.00 0.00 0.00 89 1019.7
20260510002521 9 306 1.6 3.2 0.00 0.00 0.00 89 1019.8
20260510001021 9 139 1.6 6.4 0.00 0.00 0.00 89 1019.9
20260509235521 9 286 1.6 9.7 0.00 0.00 0.00 89 1020.0
20260509234021 9 256 3.2 6.4 0.00 0.00 0.00 88 1019.9
20260509232521 9 306 0.0 6.4 0.00 0.00 0.00 87 1020.1
20260509231021 9 348 1.6 6.4 0.00 0.00 0.00 89 1019.9
20260509225521 9 311 1.6 6.4 0.00 0.00 0.00 90 1019.6
20260509224021 9 344 1.6 6.4 0.00 0.00 0.00 90 1019.7
20260509222521 9 329 1.6 3.2 0.00 0.00 0.00 90 1019.6
20260509221021 9 263 0.0 3.2 0.00 0.00 0.00 89 1019.7
20260509215521 10 249 1.6 6.4 0.00 0.00 0.00 90 1019.2
20260509214021 10 289 0.0 6.4 0.00 0.00 0.00 90 1019.3
20260509212521 10 286 1.6 6.4 0.00 0.00 0.00 89 1019.1